Regional Weather Roundup
Issued by NWS Charleston, WV

Home | Current Version | Previous Version | Graphics & Text | Print | Product List | Glossary On
Versions: 1 2 3 4 5 6 7 8 9 10 11 12 13 14 15 16 17 18 19 20 21 22 23 24 25 26 27 28 29 30 31 32 33 34 35 36 37 38 39 40 41 42 43 44 45 46 47 48 49 50
000
ASUS41 KRLX 300510
RWRRLX
West Virginia Regional Weather Roundup
National Weather Service Charleston WV
100 AM EDT WED JUL 30 2014

Note: "fair" indicates few or no clouds below 12,000 feet with no
significant weather and/or obstructions to visibility.

WVZ003-300600-
Northern Panhandle of West Virginia

CITY           SKY/WX    TMP DP  RH WIND       PRES   REMARKS
WHEELING       CLEAR     54  51  90 S5        30.05S
$$

WVZ009-300600-
Northwest West Virginia

CITY           SKY/WX    TMP DP  RH WIND       PRES   REMARKS
PARKERSBURG    CLEAR     55  53  93 CALM      30.09R
$$

WVZ006-300600-
Western West Virginia

CITY           SKY/WX    TMP DP  RH WIND       PRES   REMARKS
HUNTINGTON     PTCLDY    56  55  97 CALM      30.07F FOG
$$

WVZ015-300600-
West Central West Virginia

CITY           SKY/WX    TMP DP  RH WIND       PRES   REMARKS
CHARLESTON     PTCLDY    58  58 100 CALM      30.08S
$$

WVZ031-300600-
North Central West Virginia

CITY           SKY/WX    TMP DP  RH WIND       PRES   REMARKS
CLARKSBURG     MOCLDY    53  51  93 CALM      30.07S
MORGANTOWN     CLEAR     55  51  86 CALM      30.08R
$$

WVZ035-042-045-300600-
South Central West Virginia

CITY           SKY/WX    TMP DP  RH WIND       PRES   REMARKS
BECKLEY        CLEAR     54  50  86 CALM      30.12F
BLUEFIELD      CLEAR     54  48  80 W6        30.13F
LEWISBURG      CLEAR     52  49  90 CALM      30.12S
$$

WVZ047-300600-
Northern Mountains of West Virginia

CITY           SKY/WX    TMP DP  RH WIND       PRES   REMARKS
ELKINS         CLOUDY    52  49  89 SW3       30.10F
$$

WVZ052-300600-
Eastern Panhandle of West Virginia

CITY           SKY/WX    TMP DP  RH WIND       PRES   REMARKS
MARTINSBURG    CLEAR     55  49  80 S5        30.05R
PETERSBURG     CLEAR     51  47  86 CALM      30.09S
$$


USA.gov is the U.S. government's official web portal to all federal, state and local government web resources and services.